Smith Lake Weather Center

Moon Phase Calendar



Smith Lake Water Level
Online Cameras

 


      

Current Conditions in Good Hope
10/20/2020 6:11:46 PM

74°F
Feels Like 74
Clear
Humidity
54%
Pressure
30.09"
Wind
4.8 mph (E)
Dew Point
57°F
UV Index
5/10 (Moderate)
Visibility
6 mi

Hourly Forecast

Date & Time Tue, Oct 20
6:00 PM
Tue, Oct 20
7:00 PM
Tue, Oct 20
8:00 PM
Tue, Oct 20
9:00 PM
Tue, Oct 20
10:00 PM
Tue, Oct 20
11:00 PM
Wed, Oct 21
12:00 AM
Wed, Oct 21
1:00 AM
Wed, Oct 21
2:00 AM
Wed, Oct 21
3:00 AM
Wed, Oct 21
4:00 AM
Wed, Oct 21
5:00 AM
Wed, Oct 21
6:00 AM
Wed, Oct 21
7:00 AM
Wed, Oct 21
8:00 AM
Wed, Oct 21
9:00 AM
Wed, Oct 21
10:00 AM
Wed, Oct 21
11:00 AM
Wed, Oct 21
12:00 PM
Wed, Oct 21
1:00 PM
Wed, Oct 21
2:00 PM
Wed, Oct 21
3:00 PM
Wed, Oct 21
4:00 PM
Wed, Oct 21
5:00 PM
Wed, Oct 21
6:00 PM
Wed, Oct 21
7:00 PM
Wed, Oct 21
8:00 PM
Wed, Oct 21
9:00 PM
Wed, Oct 21
10:00 PM
Wed, Oct 21
11:00 PM
Thu, Oct 22
12:00 AM
Thu, Oct 22
1:00 AM
Thu, Oct 22
2:00 AM
Thu, Oct 22
3:00 AM
Thu, Oct 22
4:00 AM
Thu, Oct 22
5:00 AM
Thu, Oct 22
6:00 AM
Thu, Oct 22
7:00 AM
Thu, Oct 22
8:00 AM
Thu, Oct 22
9:00 AM
Thu, Oct 22
10:00 AM
Thu, Oct 22
11:00 AM
Thu, Oct 22
12:00 PM
Thu, Oct 22
1:00 PM
Thu, Oct 22
2:00 PM
Thu, Oct 22
3:00 PM
Thu, Oct 22
4:00 PM
Thu, Oct 22
5:00 PM
Condition
Clear

Clear

Clear

Clear

Clear

Clear

Clear

Clear

Clear

Clear

Clear

Clear

Clear

Clear

Clear

Clear

Clear

Clear

Clear

Clear

Clear

Clear

Clouds

Clear

Clear

Clear

Clear

Clear

Clear

Clear

Clear

Clear

Clear

Clear

Clear

Clear

Clear

Clear

Clear

Clear

Clear

Clear

Clear

Clear

Clear

Clear

Clear

Clear
Temperature 74°F71°F68°F65°F64°F64°F63°F63°F62°F62°F62°F61°F61°F60°F63°F68°F72°F76°F79°F81°F82°F82°F81°F79°F73°F70°F69°F68°F67°F66°F65°F65°F64°F64°F64°F63°F63°F63°F65°F69°F74°F77°F79°F81°F81°F82°F81°F79°F
Feels Like 74°F71°F68°F65°F64°F64°F64°F64°F64°F63°F63°F62°F61°F61°F64°F68°F73°F78°F81°F84°F85°F84°F82°F81°F75°F72°F70°F69°F68°F67°F67°F67°F66°F66°F65°F65°F65°F64°F66°F70°F74°F77°F79°F80°F82°F82°F82°F82°F
Cloudiness 1%1%0%0%0%0%0%0%0%0%0%0%0%0%0%0%0%0%0%0%7%6%12%10%9%7%0%0%0%0%0%0%0%0%0%0%0%0%3%1%1%1%0%0%0%0%0%1%
Visibility 6 mi6 mi6 mi6 mi6 mi6 mi6 mi6 mi6 mi6 mi6 mi6 mi6 mi6 mi6 mi6 mi6 mi6 mi6 mi6 mi6 mi6 mi6 mi6 mi6 mi6 mi6 mi6 mi6 mi6 mi6 mi6 mi6 mi6 mi6 mi6 mi6 mi6 mi6 mi6 mi6 mi6 mi6 mi6 mi6 mi6 mi6 mi6 mi
Precipitation 0%0%0%0%0%0%0%0%0%0%0%0%0%0%0%0%0%0%0%0%0%0%0%0%0%0%0%0%0%0%0%0%0%0%0%0%0%0%0%0%0%0%0%0%0%0%0%0%
Humidity 54%66%75%80%81%84%88%91%93%95%96%96%96%96%90%81%73%67%62%58%54%53%56%64%75%79%81%82%85%89%93%95%96%96%97%97%97%97%92%83%73%63%56%53%52%52%54%63%
Dew Point 57°F59°F60°F59°F58°F59°F60°F60°F60°F61°F60°F60°F60°F59°F60°F62°F63°F65°F65°F65°F64°F64°F64°F66°F65°F63°F63°F62°F63°F63°F63°F64°F63°F63°F63°F63°F62°F62°F63°F64°F65°F64°F63°F62°F62°F63°F63°F66°F
Pressure 30.09"30.09"30.12"30.12"30.12"30.12"30.12"30.15"30.15"30.15"30.12"30.15"30.18"30.18"30.21"30.21"30.21"30.18"30.18"30.15"30.12"30.09"30.09"30.06"30.09"30.12"30.15"30.15"30.15"30.15"30.12"30.12"30.12"30.12"30.12"30.12"30.15"30.15"30.15"30.18"30.15"30.15"30.12"30.09"30.06"30.06"30.03"30.03"
Wind Speed 4.8 mph5 mph5.3 mph5.2 mph5.1 mph4.6 mph3.7 mph3.6 mph3.8 mph4.1 mph3.9 mph4.6 mph4.5 mph4.3 mph5.1 mph5.3 mph5.4 mph5.6 mph5.5 mph4.7 mph4.4 mph5.1 mph5.8 mph5.1 mph5 mph5.2 mph5.3 mph5.1 mph5.4 mph5.4 mph4.9 mph4.8 mph4.9 mph4.8 mph4.8 mph4.8 mph4.6 mph4.7 mph5.8 mph6.8 mph7.4 mph7.4 mph7.8 mph7.5 mph6.7 mph6.2 mph6 mph4 mph
Wind
Direction
79°
E
78°
ENE
82°
E
98°
E
112°
ESE
118°
ESE
111°
ESE
106°
ESE
104°
ESE
106°
ESE
100°
E
96°
E
92°
E
87°
E
86°
E
91°
E
98°
E
110°
ESE
118°
ESE
119°
ESE
109°
ESE
99°
E
88°
E
78°
ENE
67°
ENE
63°
ENE
65°
ENE
71°
ENE
79°
E
87°
E
92°
E
95°
E
98°
E
102°
ESE
101°
E
103°
ESE
100°
E
96°
E
103°
ESE
111°
ESE
119°
ESE
123°
ESE
127°
SE
128°
SE
126°
SE
121°
ESE
117°
ESE
106°
ESE

Daily Forecast

Date High Low Precip. Humidity
Today
Oct 20

Clouds
80 °F
58 °F
0%
52%
Wednesday
Oct 21

Clear
81 °F
60 °F
0%
58%
Thursday
Oct 22

Clear
81 °F
63 °F
0%
53%
Friday
Oct 23

Rain
80 °F
63 °F
34%
58%
Saturday
Oct 24

Rain
83 °F
63 °F
100%
59%
Sunday
Oct 25

Clear
81 °F
64 °F
0%
58%
Monday
Oct 26

Rain
81 °F
65 °F
98%
59%
Tuesday
Oct 27

Rain
76 °F
62 °F
100%
82%
Wednesday
Oct 28

Rain
72 °F
61 °F
100%
92%
Thursday
Oct 29

Rain
78 °F
56 °F
100%
67%
Friday
Oct 30

Clouds
52 °F
44 °F
54%
67%
Saturday
Oct 31

Clouds
60 °F
44 °F
0%
56%
Sunday
Nov 1

Clear
59 °F
42 °F
0%
47%
Monday
Nov 2

Clouds
63 °F
42 °F
0%
58%
Tuesday
Nov 3

Rain
66 °F
53 °F
83%
68%
Wednesday
Nov 4

Rain
61 °F
53 °F
97%
79%


Temperature 8-14 Day Outlook



Precipitation 8-14 Day Outlook




Quick Links
Smith Lake News
Smith Lake Photos
Smith Lake Videos




About Us
Contact Us
Site Map
Search Site
Advertise With Us
   
www.SmithLake.info
THE SMITH LAKE WEBSITE

Copyright 2020, Lakes Online
Privacy    |    Legal